Location: Ferintosh
(52.7647°N, 112.9692°W)
Time: 13:40:12
(UTC+00:00)

Transit 2A - Pass Details

Date: 20 May 2024
Orbit: 592 x 959 km, 66.7° (Epoch: 23 June)

Event Time Altitude Azimuth Distance (km) Brightness Sun altitude
Rises 14:34:25 0° 320° (NW) 3,329 8.9 25.8°
Reaches altitude 10° 14:36:46 10° 321° (NW) 2,448 8.3 26.2°
Maximum altitude 14:42:30 84° 49° (NE) 900 6.9 27.0°
Drops below altitude 10° 14:48:42 10° 139° (SE) 2,640 9.5 28.0°
Sets 14:51:19 0° 140° (SE) 3,607 10.1 28.4°
